Retour au catalogue

DELTA 1 DEB

ActifSSO
NORAD 42567·DEBRIS·🇺🇸 United States

Lancé Jul 23, 1972 depuis Vandenberg Space Force Base

Loading…

Prochains Passages (prochaines 24 heures)

TLE

FraisSource: Space-Track

Époque: Sep 13, 2026, 04:26 UTC

1 42567U 72058KA  26256.18472479  .00000684  00000-0  11906-3 0  9997
2 42567  98.5343  37.0718 0112403  82.9935 278.4036 14.67595569683601

Suivez DELTA 1 DEB en temps réel avec AllMySat

Download on the App Store